Tallevast, FL

3:04 PM EDT on August 27, 2016 (GMT -0400)
Sarasota-bradenton

Weather History for KSRQ - February, 2013

Change the Weather History Date:

Saturday, February 9, 2013

  Actual Average Record
Temperature  
Mean Temperature 68 °F 63 °F  
Max Temperature 78 °F 73 °F 86 °F (1994)
Min Temperature 57 °F 53 °F 28 °F (1995)
Degree Days  
Heating Degree Days 0 4  
Month to date heating degree days 40 36  
Since 1 July heating degree days 204 356  
Cooling Degree Days 3 2  
Month to date cooling degree days 13 14  
Year to date cooling degree days 130 66  
Growing Degree Days 18 (Base 50)    
Moisture  
Dew Point 53 °F    
Average Humidity 67    
Maximum Humidity 100    
Minimum Humidity 37    
Precipitation  
Precipitation 0.00 in 0.05 in 2.55 in (1981)
Month to date precipitation 0.12 0.39  
Year to date precipitation 0.32 2.88  
Sea Level Pressure  
Sea Level Pressure 30.13 in    
Wind  
Wind Speed 8 mph (NE)    
Max Wind Speed 16 mph    
Max Gust Speed 21 mph    
Visibility 10 miles    
Events      
T = Trace of Precipitation, MM = Missing Value Source: NWS Daily Summary

Daily Weather History Graph

Daily Weather History Graph

Search for Another Location

Airport or City:

Trip Planner

Search our weather history database for the weather conditions in past years. The results will help you decide how hot, cold, wet, or windy it might be!

Date:

Astronomy

Feb. 09, 2013 Rise Set
Actual Time 7:11 AM EST 6:17 PM EST
Civil Twilight 6:47 AM EST 6:41 PM EST
Nautical Twilight 6:19 AM EST 7:09 PM EST
Astronomical Twilight 5:52 AM EST 7:36 PM EST
Moon 6:23 AM EST (2/9) 5:56 PM EST (2/9)
Length of Visible Light 11h 54m
Length of Day
11h 06m
Waning Crescent, 0% of the Moon is Illuminated
Feb 9
Waning Crescent
Feb 10
New
Feb 17
First Quarter
Feb 25
Full
Mar 4
Last Quarter

Hourly Weather History & Observations

Time (EST) Temp. Dew Point Humidity Pressure Visibility Wind Dir Wind Speed Gust Speed Precip Events Conditions
12:53 AM 60.1 °F 57.0 °F 90% 30.08 in 10.0 mi North 6.9 mph - N/A   Partly Cloudy
1:53 AM 57.9 °F 57.0 °F 97% 30.07 in 9.0 mi Calm Calm - N/A   Clear
2:53 AM 57.0 °F 55.9 °F 96% 30.07 in 9.0 mi NNE 4.6 mph - N/A   Clear
3:53 AM 57.9 °F 55.9 °F 93% 30.08 in 10.0 mi NNE 6.9 mph - N/A   Partly Cloudy
4:53 AM 57.9 °F 55.0 °F 90% 30.09 in 10.0 mi NNE 8.1 mph - N/A   Clear
5:53 AM 57.9 °F 54.0 °F 87% 30.12 in 10.0 mi NNE 11.5 mph - N/A   Clear
6:53 AM 57.0 °F 53.1 °F 87% 30.13 in 10.0 mi NNE 9.2 mph - N/A   Clear
7:53 AM 57.0 °F 53.1 °F 87% 30.15 in 10.0 mi NNE 10.4 mph - N/A   Clear
8:53 AM 60.1 °F 53.1 °F 78% 30.17 in 10.0 mi NE 9.2 mph - N/A   Clear
9:53 AM 64.0 °F 53.1 °F 67% 30.18 in 10.0 mi NE 12.7 mph - N/A   Clear
10:53 AM 68.0 °F 53.1 °F 59% 30.18 in 10.0 mi NE 10.4 mph - N/A   Clear
11:53 AM 73.0 °F 52.0 °F 48% 30.17 in 10.0 mi ENE 9.2 mph - N/A   Clear
12:53 PM 75.0 °F 52.0 °F 44% 30.15 in 10.0 mi ENE 8.1 mph - N/A   Clear
1:53 PM 75.9 °F 51.1 °F 42% 30.12 in 10.0 mi East 10.4 mph - N/A   Clear
2:53 PM 78.1 °F 50.0 °F 37% 30.12 in 10.0 mi ENE 5.8 mph - N/A   Clear
3:53 PM 78.1 °F 51.1 °F 39% 30.10 in 10.0 mi ENE 6.9 mph - N/A   Clear
4:53 PM 78.1 °F 51.1 °F 39% 30.10 in 10.0 mi NE 6.9 mph - N/A   Clear
5:53 PM 75.0 °F 51.1 °F 43% 30.10 in 10.0 mi ENE 8.1 mph - N/A   Clear
6:53 PM 70.0 °F 52.0 °F 53% 30.11 in 10.0 mi ENE 5.8 mph - N/A   Clear
7:53 PM 68.0 °F 53.1 °F 59% 30.13 in 10.0 mi ENE 5.8 mph - N/A   Partly Cloudy
8:53 PM 66.9 °F 53.1 °F 61% 30.15 in 10.0 mi East 12.7 mph 19.6 mph N/A   Clear
9:53 PM 66.0 °F 55.0 °F 68% 30.17 in 10.0 mi East 11.5 mph - N/A   Clear
10:53 PM 64.0 °F 54.0 °F 70% 30.17 in 10.0 mi East 10.4 mph - N/A   Clear
11:53 PM 63.0 °F 55.0 °F 75% 30.17 in 10.0 mi East 10.4 mph - N/A   Clear